Regional Weather Roundup
Issued by NWS Little Rock, AR

Home | Current Version | Previous Version | Graphics & Text | Print | Product List | Glossary On
Versions: 1 2 3 4 5 6 7 8 9 10 11 12 13 14 15 16 17 18 19 20 21 22 23 24 25 26 27 28 29 30 31 32
000
ASUS44 KLZK 200005
RWRLZK

WEATHER ROUNDUP FOR ARKANSAS
NATIONAL WEATHER SERVICE LITTLE ROCK AR
700 PM CDT THU APR 19 2018

NOTE: "FAIR" INDICATES FEW OR NO CLOUDS BELOW 12,000 FEET WITH NO
SIGNIFICANT WEATHER AND/OR OBSTRUCTIONS TO VISIBILITY.

ARZ001-003-010-029-200100-
NORTHWEST ARKANSAS

CITY           SKY/WX    TMP DP  RH WIND       PRES   REMARKS
FAYETTEVILLE   CLEAR     55  31  39 E12       30.31F
6HR MIN TEMP:  52; 6HR MAX TEMP:  58;

FORT SMITH     PTCLDY    62  34  35 E7        30.29S
6HR MIN TEMP:  58; 6HR MAX TEMP:  65;

HARRISON       CLEAR     55  30  38 NE9       30.33F
6HR MIN TEMP:  51; 6HR MAX TEMP:  58;

BENTONVILLE    CLEAR     54  32  43 NE10      30.34F
6HR MIN TEMP:  51; 6HR MAX TEMP:  56;

ROGERS         CLEAR     53  33  46 NE9       30.33F
6HR MIN TEMP:  49; 6HR MAX TEMP:  55;

SILOAM SPGS    SUNNY     54  34  46 NE7       30.33S
6HR MIN TEMP:  52; 6HR MAX TEMP:  57;

SPRINGDALE     CLEAR     55  32  41 NE12      30.33F
$$

ARZ004-005-016-200100-
NORTH CENTRAL ARKANSAS

CITY           SKY/WX    TMP DP  RH WIND       PRES   REMARKS
BATESVILLE     CLEAR     57  29  34 NE5       30.35S
6HR MIN TEMP:  54; 6HR MAX TEMP:  58;

FLIPPIN        CLEAR     56  30  37 NE8       30.35S
6HR MIN TEMP:  51; 6HR MAX TEMP:  59;

MTN HOME       CLEAR     55  29  36 VRB5      30.34S
6HR MIN TEMP:  51; 6HR MAX TEMP:  58;

$$

ARZ040-041-200100-
WEST CENTRAL ARKANSAS

CITY           SKY/WX    TMP DP  RH WIND       PRES   REMARKS
MENA           PTCLDY    61  36  39 N6        30.28S
MOUNT IDA      CLEAR     62  39  42 VRB3      30.26F
6HR MIN TEMP:  58; 6HR MAX TEMP:  65;

$$

ARZ009-017-025-026-028-200100-
NORTHEAST ARKANSAS

CITY           SKY/WX    TMP DP  RH WIND       PRES   REMARKS
CORNING        FAIR      55  36  47 E13       30.37S
JONESBORO      FAIR      52  36  54 NE14      30.36S
6HR MIN TEMP:  51; 6HR MAX TEMP:  56;

NEWPORT        FAIR      54  31  41 NE13      30.36S
6HR MIN TEMP:  52; 6HR MAX TEMP:  57;

WALNUT RIDGE   FAIR      54  32  43 E14       30.36S
6HR MIN TEMP:  51; 6HR MAX TEMP:  57;

BLYTHEVILLE    FAIR      52  33  48 NE18      30.36S
6HR MIN TEMP:  50; 6HR MAX TEMP:  56;

$$

ARZ022-023-033-042-044-200100-
CENTRAL ARKANSAS

CITY           SKY/WX    TMP DP  RH WIND       PRES   REMARKS
LITTLE ROCK    MOCLDY    59  33  37 NE10      30.32S
6HR MIN TEMP:  57; 6HR MAX TEMP:  62;

N LITTLE ROCK    N/A     57  34  43 NE7       30.29F
6HR MIN TEMP:  54; 6HR MAX TEMP:  60;

JACKSONVILLE   CLEAR     60  33  35 N9        30.31R
6HR MIN TEMP:  56; 6HR MAX TEMP:  62;

CONWAY           N/A     59  34  38 NE14      30.31F
SEARCY         FAIR      57  33  40 NE9       30.34S
6HR MIN TEMP:  56; 6HR MAX TEMP:  62;

HOT SPRINGS    PTCLDY    62  36  37 NE12      30.29
6HR MIN TEMP:  59; 6HR MAX TEMP:  65;

RUSSELLVILLE   PTCLDY    60  31  33 NE10      30.30F
6HR MIN TEMP:  58; 6HR MAX TEMP:  64;

CLINTON        FAIR      57  28  33 NE7G14    30.33S
$$

ARZ036-200100-
EAST ARKANSAS

CITY           SKY/WX    TMP DP  RH WIND       PRES   REMARKS
WEST MEMPHIS   FAIR      52  33  48 N15       30.34R
6HR MIN TEMP:  52; 6HR MAX TEMP:  56;

$$

ARZ050-053-066-070-073-200100-
SOUTHWEST ARKANSAS

CITY           SKY/WX    TMP DP  RH WIND       PRES   REMARKS
ARKADELPHIA    FAIR      62  39  42 NE6       30.29S
6HR MIN TEMP:  59; 6HR MAX TEMP:  65;

CAMDEN         FAIR      63  34  34 NE8       30.28S
TEXARKANA      PTCLDY    64  39  39 NE6       30.26S
6HR MIN TEMP:  61; 6HR MAX TEMP:  67;

EL DORADO      FAIR      61  40  45 NE10      30.28S
6HR MIN TEMP:  60; 6HR MAX TEMP:  66;

DE QUEEN       CLEAR     63  38  39 NE9       30.25R
6HR MIN TEMP:  62; 6HR MAX TEMP:  68;

$$

ARZ056-057-069-200100-
SOUTHEAST ARKANSAS

CITY           SKY/WX    TMP DP  RH WIND       PRES   REMARKS
PINE BLUFF     FAIR      57  32  38 NE13G23   30.32S
6HR MIN TEMP:  55; 6HR MAX TEMP:  61;

STUTTGART      FAIR      55  32  41 NE12      30.34R
6HR MIN TEMP:  55; 6HR MAX TEMP:  59;

MONTICELLO     FAIR      56  33  42 NE6       30.31S
6HR MIN TEMP:  56; 6HR MAX TEMP:  61;


$$






USA.gov is the U.S. government's official web portal to all federal, state and local government web resources and services.